Content
SEND FEEDBACK

Daily
Averages
Monthly
Summary
United States of America

LAKE LYNN, PENNSYLVANIA


Home > North America > United States > Pennsylvania
Elevation: 27 meters     Latitude: 39 43N     Longitude: 079 51W

WEATHER
 
SELECT A DAY
Number of Records: 218,902;   Date Range: 1/1/95 - 12/17/14
 
SHARE

PRINT THIS DATA

[ ← Previous Day ]
WEATHER ALMANAC - 31 JANUARY, 2013
[ Next Day → ]
[ °F ]   °C
Weather ElementAverageHighLow
Temperature-1.5 °C8.3 °C (12:53 am)-4 °C (2:05 pm)
Dewpoint-6 °C6.1 °C (12:53 am)-12.2 °C (4:53 pm)
Humidity72.3 %87 % (1:08 am)51 % (4:53 pm)
Barometer1005.8 hPa1012.9 hPa (9:53 pm)991.9 hPa (12:53 am)
Wind Speed17.4 km/h31.5 km/h (1:08 am)
Wind Gust66.6 km/h (1:08 am)
Weather ElementAverage
Visibility10.5 km
Wind DirectionSW (222.7 °)

Weather ElementTotal
Precipitation6.6 mm
Heating Degree Days16.2 (Base 18.3)
Averaged from 49 records on 31 January, 2013
WEATHER CONDITIONS BREAKOUT
WIND DIRECTION BREAKOUT
WEATHER BY HOUR - 31 JANUARY, 2013
[ °F ]   °C
Local TimeTemperatureDewpointHumidityBarometerVisibilityWind DirectionWind SpeedGust SpeedPrecipitationEventsConditions
12:53 AM8.3 °C6.1 °C86 %991.9 hPa16.1 kmSSW (210°)11.1 km/h1.02 mmOvercast
1:08 AM5 °C3 °C87 %993.2 hPa4.8 kmWNW (290°)31.5 km/h66.6 km/h1.27 mmRainHeavy Rain
1:19 AM6 °C1 °C70 %993.6 hPa16.1 kmWest (260°)20.4 km/h50.1 km/h1.27 mmRainLight Rain
1:41 AM5 °C2 °C81 %994.2 hPa16.1 kmWest (270°)22.2 km/h35.2 km/h1.27 mmRainLight Rain
1:53 AM4.4 °C1.1 °C79 %995.6 hPa16.1 kmWNW (290°)20.4 km/h42.6 km/h1.27 mmRainLight Rain
2:53 AM2.2 °C-1.1 °C79 %997.3 hPa16.1 kmWest (280°)24.1 km/h53.8 km/h0.51 mmOvercast
3:53 AM1.7 °C-2.8 °C72 %998.3 hPa16.1 kmWest (270°)24.1 km/h42.6 km/h0 mmOvercast
4:05 AM2 °C-4 °C65 %998.6 hPa16.1 kmWest (270°)25.9 km/h51.8 km/hOvercast
4:53 AM0.6 °C-4.4 °C70 %999.7 hPa16.1 kmWSW (250°)18.5 km/h42.6 km/hOvercast
5:53 AM-0.6 °C-3.3 °C82 %1001.4 hPa9.7 kmWNW (290°)18.5 km/h33.3 km/h0 mmSnowLight Snow
6:32 AM-1 °C-6 °C69 %1002 hPa16.1 kmWest (260°)20.4 km/h42.6 km/h0 mmOvercast
6:53 AM-0.6 °C-5 °C72 %1002.7 hPa14.5 kmWSW (250°)16.7 km/h29.6 km/h0 mmOvercast
7:53 AM-0.6 °C-6.7 °C64 %1004.1 hPa16.1 kmWest (260°)18.5 km/h40.7 km/hOvercast
8:53 AM-1.1 °C-6.7 °C66 %1005.1 hPa9.7 kmWNW (290°)24.1 km/h42.6 km/hHaze
8:56 AM-2 °C-6 °C74 %1004.7 hPa2.4 kmWNW (290°)25.9 km/h42.6 km/h0 mmSnowLight Snow
9:08 AM-2 °C-7 °C69 %1005.1 hPa4.8 kmWest (280°)18.5 km/h37 km/h0 mmSnowLight Snow
9:53 AM-1.7 °C-8.3 °C61 %1006.1 hPa16.1 kmWest (280°)20.4 km/h35.2 km/h0 mmOvercast
10:53 AM-2.2 °C-9.4 °C58 %1007.5 hPa16.1 kmWest (280°)31.5 km/h48.1 km/hOvercast
11:53 AM-1.7 °C-7.8 °C64 %1008.1 hPa16.1 kmWSW (250°)16.7 km/h38.9 km/hOvercast
12:05 PM-2 °C-7 °C69 %1007.1 hPa12.9 kmWest (280°)20.4 km/h35.2 km/hOvercast
12:12 PM-3 °C-6 °C80 %1007.8 hPa2.4 kmWNW (290°)24.1 km/h38.9 km/h0 mmSnowLight Snow
12:20 PM-3 °C-6 °C80 %1007.1 hPa0.8 kmWest (260°)18.5 km/h38.9 km/h0 mmFog-SnowLight Snow
12:26 PM-3 °C-6 °C80 %1007.5 hPa4 kmWSW (250°)16.7 km/h31.5 km/h0 mmSnowLight Snow
12:49 PM-3 °C-6 °C80 %1007.5 hPa0.8 kmWest (270°)13 km/h33.3 km/h0 mmFog-SnowLight Snow
12:53 PM-3.3 °C-5.6 °C84 %1008.5 hPa1.3 kmWest (270°)14.8 km/h31.5 km/h0 mmSnowLight Snow
12:59 PM-3 °C-6 °C80 %1007.5 hPa3.2 kmWest (280°)16.7 km/h29.6 km/h0 mmSnowLight Snow
1:09 PM-3 °C-6 °C80 %1007.5 hPa1.6 kmVariable11.1 km/h31.5 km/h0 mmSnowLight Snow
1:32 PM-3 °C-6 °C80 %1007.1 hPa4.8 kmVariable11.1 km/h0 mmSnowLight Snow
1:39 PM-2 °C-7 °C69 %1007.1 hPa9.7 kmVariable9.3 km/h0 mmHaze
1:53 PM-1.7 °C-7.2 °C67 %1008.1 hPa16.1 kmVariable11.1 km/h33.3 km/h0 mmOvercast
1:59 PM-2 °C-7 °C69 %1007.5 hPa3.2 kmWest (280°)20.4 km/h33.3 km/h0 mmSnowLight Snow
2:02 PM-3 °C-7 °C74 %1007.8 hPa1.3 kmWNW (290°)20.4 km/h35.2 km/h0 mmSnowLight Snow
2:05 PM-4 °C-6 °C86 %1007.8 hPa0.3 kmWNW (290°)20.4 km/h35.2 km/h0 mmFog-SnowLight Snow
2:12 PM-4 °C-6 °C86 %1008.1 hPa0.3 kmWest (280°)22.2 km/h37 km/h0 mmFog-SnowLight Snow
2:18 PM-3 °C-7 °C74 %1008.1 hPa1.6 kmWSW (250°)27.8 km/h46.3 km/h0 mmSnowLight Snow
2:46 PM-3 °C-8 °C69 %1008.8 hPa11.3 kmWest (260°)18.5 km/h37 km/h0 mmOvercast
2:53 PM-2.8 °C-9.4 °C61 %1010.2 hPa16.1 kmWest (260°)16.7 km/h46.3 km/h0 mmMostly Cloudy
3:53 PM-3.3 °C-11.7 °C53 %1011.5 hPa16.1 kmWSW (250°)14.8 km/h35.2 km/hOvercast
4:53 PM-3.3 °C-12.2 °C51 %1011.9 hPa16.1 kmVariable9.3 km/hOvercast
5:53 PM-3.3 °C-12.2 °C51 %1011.9 hPa16.1 kmSW (230°)11.1 km/hPartly Cloudy
6:53 PM-3.3 °C-12.2 °C51 %1012.2 hPa16.1 kmSW (230°)20.4 km/h35.2 km/hPartly Cloudy
7:53 PM-3.9 °C-10.6 °C60 %1012.5 hPa16.1 kmVariable11.1 km/hScattered Clouds
9:53 PM-3.9 °C-8.3 °C72 %1012.9 hPa9.7 kmSW (220°)13 km/h0 mmSnowLight Snow
10:28 PM-4 °C-8 °C74 %1011.2 hPa16.1 kmSSW (210°)9.3 km/h0 mmOvercast
10:53 PM-3.9 °C-7.8 °C75 %1012.5 hPa16.1 kmSSW (200°)9.3 km/h0 mmOvercast
11:10 PM-4 °C-7 °C80 %1010.5 hPa16.1 kmSSW (210°)11.1 km/hMostly Cloudy
11:25 PM-4 °C-7 °C80 %1010.5 hPa16.1 kmSSW (210°)7.4 km/hOvercast
11:50 PM-4 °C-7 °C80 %1010.2 hPa8 kmSW (220°)7.4 km/h0 mmSnowLight Snow
11:53 PM-3.9 °C-6.7 °C81 %1011.5 hPa6.4 kmVariable7.4 km/h0 mmSnowLight Snow
Hourly data recorded from KMGW, located 0 kilometers away from Lake Lynn, Pennsylvania







STORIES FROM OUR PARTNERS